Change the Weather History Date:

Friday, January 18, 2013

  Actual Average Record
Temperature  
Mean Temperature 40 °F 29 °F  
Max Temperature 63 °F 45 °F 69 °F (1999)
Min Temperature 17 °F 13 °F -22 °F (1984)
Degree Days  
Heating Degree Days 25 36  
Month to date heating degree days 696 660  
Since 1 July heating degree days 2846 2973  
Cooling Degree Days 0 0  
Month to date cooling degree days 0 0  
Year to date cooling degree days 0 0  
Moisture  
Dew Point 11 °F    
Average Humidity 42    
Maximum Humidity 75    
Minimum Humidity 9    
Precipitation  
Precipitation 0.00 in 0.01 in 0.23 in (1979)
Month to date precipitation 0.01 0.13  
Year to date precipitation 0.01 0.13  
Sea Level Pressure  
Sea Level Pressure 30.14 in    
Wind  
Wind Speed 8 mph (WSW)    
Max Wind Speed 18 mph    
Max Gust Speed 22 mph    
Visibility 10 miles    
Events      
T = Trace of Precipitation, MM = Missing Value Source: NWS Daily Summary

Daily Weather History Graph

Daily Weather History Graph

Search for Another Location

Airport or City:

Trip Planner

Search our weather history database for the weather conditions in past years. The results will help you decide how hot, cold, wet, or windy it might be!

Date:

Astronomy

Jan. 18, 2013 Rise Set
Actual Time 7:04 AM MST 4:58 PM MST
Civil Twilight 6:35 AM MST 5:27 PM MST
Nautical Twilight 6:03 AM MST 5:59 PM MST
Astronomical Twilight 5:32 AM MST 6:30 PM MST
Moon 10:51 AM MST (1/18) No Moon Set
Length of Visible Light 10h 51m
Length of Day
9h 54m
Waxing Crescent, 48% of the Moon is Illuminated
Jan 18
Waxing Crescent
Jan 18
First Quarter
Jan 26
Full
Feb 3
Last Quarter
Feb 10
New

Hourly Weather History & Observations

Time (MST) Temp. Windchill Dew Point Humidity Pressure Visibility Wind Dir Wind Speed Gust Speed Precip Events Conditions
12:53 AM 26.1 °F - 19.0 °F 75% 30.25 in 10.0 mi Calm Calm - N/A   Clear
1:53 AM 21.9 °F 11.7 °F 14.0 °F 72% 30.24 in 10.0 mi West 9.2 mph - N/A   Clear
2:53 AM 21.9 °F 12.5 °F 12.9 °F 68% 30.21 in 10.0 mi WSW 8.1 mph - N/A   Clear
3:53 AM 19.9 °F 11.1 °F 12.9 °F 74% 30.19 in 10.0 mi SW 6.9 mph - N/A   Clear
4:53 AM 21.0 °F 9.3 °F 12.9 °F 71% 30.20 in 10.0 mi West 11.5 mph - N/A   Clear
5:53 AM 19.0 °F 8.2 °F 12.0 °F 74% 30.20 in 10.0 mi West 9.2 mph - N/A   Clear
6:53 AM 19.9 °F 8.6 °F 12.0 °F 71% 30.21 in 10.0 mi West 10.4 mph - N/A   Clear
7:53 AM 19.9 °F 8.6 °F 10.9 °F 68% 30.23 in 10.0 mi West 10.4 mph - N/A   Clear
8:53 AM 28.9 °F 18.2 °F 14.0 °F 54% 30.22 in 10.0 mi West 13.8 mph - N/A   Clear
9:53 AM 37.0 °F 28.1 °F 16.0 °F 42% 30.20 in 10.0 mi West 15.0 mph - N/A   Clear
10:53 AM 45.0 °F 39.3 °F 15.1 °F 30% 30.17 in 10.0 mi West 11.5 mph - N/A   Clear
11:53 AM 53.1 °F - 14.0 °F 21% 30.12 in 10.0 mi West 11.5 mph - N/A   Clear
12:53 PM 57.9 °F - 9.0 °F 14% 30.06 in 10.0 mi West 6.9 mph - N/A   Clear
1:53 PM 61.0 °F - 8.1 °F 12% 30.05 in 10.0 mi WSW 4.6 mph - N/A   Clear
2:53 PM 62.1 °F - 3.9 °F 10% 30.04 in 10.0 mi SSW 5.8 mph - N/A   Clear
3:53 PM 62.1 °F - 5.0 °F 10% 30.04 in 10.0 mi South 5.8 mph - N/A   Clear
4:53 PM 53.1 °F - 8.1 °F 16% 30.06 in 10.0 mi South 8.1 mph - N/A   Clear
5:53 PM 37.9 °F 32.7 °F 8.1 °F 29% 30.11 in 10.0 mi SSW 6.9 mph - N/A   Clear
6:53 PM 30.0 °F 22.4 °F 8.1 °F 40% 30.14 in 10.0 mi SW 8.1 mph - N/A   Clear
7:53 PM 27.0 °F 23.0 °F 9.0 °F 47% 30.13 in 10.0 mi West 3.5 mph - N/A   Clear
8:53 PM 30.0 °F - 10.0 °F 43% 30.10 in 10.0 mi Calm Calm - N/A   Clear
9:53 PM 25.0 °F 16.3 °F 9.0 °F 51% 30.09 in 10.0 mi West 8.1 mph - N/A   Clear
10:53 PM 24.1 °F 15.2 °F 7.0 °F 48% 30.07 in 10.0 mi West 8.1 mph - N/A   Clear
11:53 PM 23.0 °F 17.0 °F 10.0 °F 58% 30.05 in 10.0 mi West 4.6 mph - N/A   Clear